Regional Weather Roundup
Issued by NWS Wakefield, VA

Home | Current Version | Previous Version | Graphics & Text | Print | Product List | Glossary On
Versions: 1 2 3 4 5 6 7 8 9 10 11 12 13 14 15 16 17 18 19 20 21 22 23 24 25 26 27
000
ASUS41 KAKQ 100215
RWRAKQ

REGIONAL WEATHER ROUNDUP
NATIONAL WEATHER SERVICE WAKEFIELD VA
900 PM EST FRI DEC 09 2016

Note: "fair" indicates few or no clouds below 12,000 feet with no
significant weather and/or obstructions to visibility. * = Denotes
station may not report precipitation (e.g., rain,snow,etc.),
thunder or fog.

VAZ042-051-052>054-056-100300-
NORTHERN VIRGINIA

CITY           SKY/WX    TMP DP  RH WIND       PRES   REMARKS
WASH NATIONAL  CLEAR     32  18  56 NW8       30.42F
DULLES         PTCLDY    28  15  58 NW8       30.40F
FORT BELVOIR   CLEAR     30  15  52 CALM      30.42S
QUANTICO       CLEAR     31  16  54 NW9       30.44F
FREDERICKSBRG* CLEAR     32  17  55 NW7       30.43S
STAFFORD*      CLEAR     28  16  61 CALM      30.46F
WARRENTON      CLEAR     29  12  49 W7        30.41F
CULPEPER*      CLEAR     27  17  64 CALM      30.43F
MANASSAS*      NOT AVBL
LEESBURG*      CLEAR     32  21  64 W13       30.41S WCI  22
WINCHESTER     CLOUDY    28  14  54 W12G21    30.38S WCI  18
FRONT ROYAL*   CLOUDY    30  14  51 W8        30.40S
LURAY*         FAIR      28  18  64 W7        30.40F
$$

VAZ048-049-060>072-079>083-100300-
CENTRAL AND SOUTH CENTRAL VIRGINIA

CITY           SKY/WX    TMP DP  RH WIND       PRES   REMARKS
RICHMOND       CLEAR     31  13  47 N3        30.44R
CHESTERFIELD*  FAIR      25   1  36 CALM      30.45R
PETERSBURG*    CLEAR     27  15  60 CALM      30.45R
HANOVER        CLEAR     31  13  47 CALM      30.45R
TAPPAHANNOCK*  CLEAR     33  10  39 NW5       30.44R
QUINTON*       FAIR      31  14  49 CALM      30.43R
CHARLOTTSVILLE CLEAR     30  11  45 SW3       30.43S
GORDONSVILLE*  FAIR      30  13  48 CALM      30.43S
ORANGE*          N/A     30  14  51 CALM      30.44S
LOUISA*        CLEAR     30  18  59 NW6       30.41S
BUMPASS*       FAIR      30  14  51 CALM      30.43S
FARMVILLE*     CLEAR     30  17  58 CALM      30.43S
CREWE*         FAIR      29  14  54 NW3       30.43S
FORT PICKETT*  FAIR      29   8  40 N3        30.43S
CHASE CITY*    FAIR      29  12  49 NW5       30.45R
CLARKSVILLE*   FAIR      30  14  51 NW3       30.45R
SOUTH HILL*    CLEAR     30  16  56 NW3       30.49S
LAWRENCEVILLE* FAIR      29  15  56 W3        30.43S
EMPORIA*       CLEAR     27  18  69 CALM      30.45S
$$

VAZ088>098-100300-
SOUTHEAST VIRGINIA

CITY           SKY/WX    TMP DP  RH WIND       PRES   REMARKS
NORFOLK        CLEAR     37  15  40 NW7       30.42R
VIRGINIA BEACH PTCLDY    35  14  42 NW10      30.41R
NORFOLK NAVAL  PTCLDY    37  15  40 NW16      30.44R
WEST POINT*    CLEAR     32  15  48 CALM      30.45R
SALUDA*        FAIR      34  19  53 NW12G21   30.42R
NEWPORT NEWS   CLEAR     29  17  61 CALM      30.43R
LANGLEY AFB    CLEAR     33  16  49 NW8       30.42R
FORT EUSTIS    CLEAR     35  16  44 N9        30.41R
WILLIAMSBURG*  CLEAR     32  19  59 CALM      30.44S
HR EXEC AP*    FAIR      25  18  74 NW3       30.41S
FRANKLIN*      CLEAR     29  18  61 CALM      30.44S
US460-WAKEFLD  CLEAR     27  18  69 CALM      30.44R
$$

VAZ020-022-025-037-045-100300-
WEST CENTRAL AND SOUTHWEST VIRGINIA

CITY           SKY/WX    TMP DP  RH WIND       PRES   REMARKS
STAUNTON*      CLEAR     23  11  61 W5        30.43R
WAYNESBORO*    FAIR      24   9  53 W3        30.41R
HOT SPRINGS VA CLOUDY    16   9  73 W12       30.24R WCI   3
LYNCHBURG      CLEAR     26  12  55 W3        30.45R
DANVILLE       CLEAR     27  14  58 NW5       30.46S
SOUTH BOSTON*  FAIR      29  11  47 NW6       30.46R
MARTINSVILLE   CLEAR     25  12  58 CALM      30.48R
ROANOKE        PTCLDY    25  11  55 NW5       30.47S
BLACKSBURG     CLOUDY    22  12  65 NW6       30.42F
DUBLIN*        MOCLDY    21  12  69 NW5       30.43S
MARION*        CLEAR     19  12  72 W5        30.41F
HILLSVILLE*    CLEAR     18  11  73 N7        30.34F
RICHLANDS*     FAIR      18  11  76 NW3       30.40S
WISE*          CLEAR     18  12  79 CALM      30.42R
ABINGDON*      CLEAR     21  15  75 CALM      30.43S
$$

MDZ021>025-VAZ099-100-100300-
SOUTHERN MARYLAND AND THE DELMARVA PENINSULA

CITY           SKY/WX    TMP DP  RH WIND       PRES   REMARKS
PATUXENT RIVER CLEAR     32  18  56 NW17      30.39F WCI  21
BAY BRIDGE APT CLEAR     32  18  55 MISG      30.39F
LEONARDTOWN    CLEAR     32  18  55 W6        30.41F
DOVER          CLEAR     32  19  57 W13       30.36S WCI  23
GEORGETOWN     CLEAR     33  17  51 NW6       30.37F
EASTON         CLEAR     32  18  55 NW13G20   30.42F WCI  22
CAMBRIDGE      CLEAR     32  18  55 NW17      30.38F WCI  21
SALISBURY      CLEAR     32  18  56 NW10      30.36F WCI  24
OCEAN CITY     CLEAR     31  18  58 NW7       30.37S
WALLOPS ISLAND CLEAR     33  19  56 NW8G16    30.38F
ACCOMACK*      CLEAR     35  19  52 NW12G20   30.39R
$$

NCZ012>017-030>032-100300-
NORTH CENTRAL AND EASTERN NORTH CAROLINA

CITY           SKY/WX    TMP DP  RH WIND       PRES   REMARKS
ROANOKE RAPIDS FAIR      28  21  74 SW5       30.45R
RALEIGH        CLEAR     30  14  51 VRB3      30.45R
ELIZABETH CITY CLEAR     29  18  63 MISG      30.42S
AHOSKIE*       CLEAR     26  22  83 CALM      30.45R
EDENTON*       CLEAR     32  22  67 CALM      30.44S
CURRITUCK*     CLEAR     33  19  55 W3        30.43S
KILL DEVIL HLS CLEAR     37  22  56 NW7       30.40S
MANTEO         CLEAR     37  18  44 N12       30.42S
CAPE HATTERAS  CLEAR     39  20  46 VRB6      30.42R
TARBORO*       NOT AVBL
GOLDSBORO      CLEAR     31  17  56 NW3       30.44S
WASHINGTON     CLEAR     32  18  56 CALM      30.45S
GREENVILLE     CLEAR     30  21  69 CALM      30.45S
NEW BERN       CLEAR     31  21  66 NW6       30.45F
WILMINGTON     CLEAR     31  25  78 N3        30.46R
$$

VAZ048-100300-
ELSEWHERE

CITY           SKY/WX    TMP DP  RH WIND       PRES   REMARKS
HARRISBURG PA  CLOUDY    31  20  63 W9        30.35S
BALTIMORE      PTCLDY    30  17  58 NW14      30.38F WCI  19
ANNAPOLIS      CLEAR     35  19  52 NW9G20    30.39F
ANDREWS AFB    CLEAR     31  17  56 NW14      30.38F WCI  20
PHILADELPHIA   PTCLDY    33  17  51 W15       30.35R WCI  23
HENDERSON NC   CLEAR     28  11  49 NW6       30.44R
GREENSBORO     CLEAR     29  13  51 N5        30.44R
ROCKY MOUNT    CLEAR     27  22  81 CALM      30.45S
$$

VAZ100-100300-
MARINE

STATION/POSITION TIME  TEMP    WIND        PRES    WAVE   SWELL
                       AIR SEA DIR/SP/G            HT/PER HT/PER
                 (UTC) (F)     (DEG/KT/KT) (MB)    (FT/S) (FT/S)
BRANDYWINE LGT   0148   35     320/ 20/ 28   N/A
CAPE MAY NJ      0148   35 41  310/ 24/ 31 1027.4R
LEWES DE         0148   35 44  310/ 20/ 25 1028.0F
OCEAN-CITY-INLET 0142   34 48  330/  8/ 10 1028.6F
WACHAPREAGUE VA  0142   35 41  290/  4/ 11 1028.8F
THOMAS POINT MD  0100   34 46  300/ 19/ 22   N/A
GOOSES REEF MD   0200   35 48  310/ 17/ 21 1030.0    2/ 3
COVE POINT MD    0142   33     330/ 21/ 28 1029.5F
SOLOMONS ISLAND  0142   34 48  320/ 16/ 24   N/A
BISHOPS HEAD MD  0142   34 37  320/ 16/ 22 1029.1F
PINEY POINT MD   0148          340/ 19/ 22   N/A
POTOMAC MD       0150   36     320/ 21/ 25 1029.1F
CAMBRIDGE MD     0142   35 44  310/ 18/ 22 1028.1F
LEWISETTA VA     0142   35 45  330/ 18/ 24 1029.9R
RAPPAHANNOCK LGT 0148          310/ 23/ 26 1030.0R
STINGRAY PT      0150   36     330/ 16/ 19 1030.4R
YORK RVR RNG VA  0142   36     320/ 12/ 14 1029.8R
YORKTOWN VA      0142   37 49  330/ 14/ 16 1030.1R
JAMESTOWN VA     0150   36     340/  8/ 10   N/A
DOMINION TERM VA 0142   38     320/ 11/ 14 1030.2R
KIPTOPEKE VA     0148      48  330/ 20/ 23   N/A
CHES BAY BRIDGE  0142   39 50  310/ 18/ 23 1029.9R
CAPE HENRY VA    0142   40     320/ 19/ 23   N/A
WILLOUBY STN VA  0142   38     330/ 13/ 15 1031.1R
S CRANEY ISL VA  0142   36     280/  5/  8 1030.0R
CAPE HENRY BUOY  0142      53                N/A     4/ 4
1ST LANDING BUOY 0200   40 50              1030.2    2/ 3
CAPE CHARLES BUO 0126      52                N/A     3/ 4
OFFSHORE WE BUOY 0151      54                N/A     5/ 5
64NM E OF VA BCH 0150   43 58  330/ 19/ 25 1028.1R   6/ 6   2/12
DUCK PIER NC     0142   39 52  310/ 12/ 16 1029.3R
44100 DUCK FRF   0105      55                N/A     5/ 7
OREGON INLET NC  0148          320/ 11/ 14   N/A
HATTERAS NC      0142   41 54  330/ 16/ 19 1029.7R
DIAMOND SHLS NC  0150   43 76  350/ 17/ 23 1029.6R   5/10   3/10
CAPE LOOKOUT NC  0100   40     340/ 13/ 15 1030.1R
$$




USA.gov is the U.S. government's official web portal to all federal, state and local government web resources and services.